GW3457 Weather Reports


Display with metric or nautical units.
time (UTC)temp
F
wind
direction
speed
MPH
gust
MPH
rain 1hr
in
rain 24hr
in
rain mn
in
humidity
%
barometer
mb
20260903113053 71 35 1.0 16.0 0.01 0.16 0.01 89 1019.7
20260903111550 71 46 3.0 5.0 0.01 0.16 0.01 90 1020.1
20260903104557 70 350 0.0 8.0 0.00 0.20 0.00 94 1019.3
20260903103057 69 360 3.0 6.0 0.00 0.20 0.00 94 1019.2
20260903101556 69 34 1.0 8.0 0.00 0.20 0.00 94 1018.7
20260903100104 69 348 5.0 11.0 0.00 0.20 0.00 95 1018.4
20260903094551 69 32 4.0 8.0 0.00 0.33 0.00 94 1018.4
20260903093107 69 348 2.0 5.0 0.00 0.33 0.00 94 1017.7
20260903091549 69 28 1.0 5.0 0.00 0.33 0.00 94 1017.5
20260903090058 69 351 3.0 8.0 0.00 0.33 0.00 94 1017.3
20260903084553 69 48 4.0 10.0 0.00 0.33 0.00 94 1017.4
20260903083053 69 39 2.0 4.0 0.00 0.33 0.00 94 1017.2
20260903081602 69 42 1.0 3.0 0.00 0.33 0.00 94 1016.9
20260903080059 69 0 0.0 1.0 0.00 0.33 0.00 94 1016.7
20260903074552 69 0 0.0 2.0 0.00 0.33 0.00 94 1016.5
20260903073051 69 40 0.0 2.0 0.00 0.33 0.00 94 1016.6
20260903071610 69 0 0.0 2.0 0.00 0.33 0.00 93 1016.6
20260903064551 70 351 1.0 3.0 0.00 0.33 0.00 93 1016.6
20260903063113 70 350 1.0 4.0 0.00 0.33 0.00 93 1017.0
20260903061602 70 54 2.0 4.0 0.00 0.33 0.00 93 1016.5
20260903060110 70 0 0.0 2.0 0.00 0.33 0.00 93 1016.4
20260903054553 70 166 1.0 5.0 0.00 0.33 0.00 93 1016.3
20260903053050 71 218 2.0 4.0 0.00 0.33 0.00 93 1016.3
20260903051600 71 28 0.0 2.0 0.00 0.33 0.00 93 1016.5
20260903050126 71 0 0.0 2.0 0.00 0.33 0.00 92 1016.6
20260903044603 71 14 0.0 2.0 0.00 0.33 0.00 92 1016.7
20260903043059 71 0 0.0 0.0 0.00 0.33 0.00 93 1016.8
20260903041556 72 0 0.0 3.0 0.00 0.33 0.00 92 1016.8
20260903040058 72 10 1.0 5.0 0.00 0.33 0.00 92 1017.3
20260903034547 72 12 3.0 7.0 0.00 0.33 0.33 92 1017.4
20260903033057 72 16 0.0 3.0 0.00 0.33 0.33 92 1017.2
20260903031552 72 39 1.0 3.0 0.00 0.33 0.33 92 1016.7
20260903030050 73 0 0.0 1.0 0.00 0.33 0.33 91 1016.7
20260903024548 73 0 0.0 2.0 0.00 0.33 0.33 91 1017.1
20260903023054 73 34 0.0 1.0 0.00 0.33 0.33 91 1016.9
20260903021552 73 0 0.0 0.0 0.00 0.33 0.33 90 1016.9
20260903020054 73 0 0.0 1.0 0.00 0.33 0.33 90 1017.0
20260903014553 74 36 0.0 2.0 0.00 0.33 0.33 90 1017.0
20260903013050 74 0 1.0 3.0 0.01 0.33 0.33 89 1017.0
20260903011609 74 22 2.0 5.0 0.01 0.33 0.33 89 1016.9
20260903010052 75 0 2.0 6.0 0.01 0.33 0.33 88 1016.9
20260903004601 75 214 2.0 4.0 0.01 0.33 0.33 86 1016.8
20260903003059 77 227 0.0 4.0 0.00 0.32 0.32 84 1017.1
20260903001556 79 218 1.0 3.0 0.00 0.32 0.32 80 1017.3
20260903000051 80 144 0.0 4.0 0.00 0.32 0.32 76 1017.5
20260902234551 81 19 3.0 7.0 0.00 0.32 0.32 70 1017.8
20260902233058 82 0 1.0 7.0 0.00 0.32 0.32 69 1017.9
20260902231603 82 156 4.0 9.0 0.00 0.32 0.32 68 1017.7
20260902230051 83 131 2.0 8.0 0.00 0.32 0.32 68 1017.7
20260902224603 83 219 4.0 11.0 0.00 0.32 0.32 68 1017.3
20260902223059 84 211 2.0 13.0 0.00 0.32 0.32 65 1016.9
20260902221554 85 161 5.0 10.0 0.00 0.32 0.32 63 1017.1
20260902220054 86 241 5.0 12.0 0.00 0.32 0.32 64 1016.9
20260902214604 88 221 5.0 11.0 0.00 0.32 0.32 62 1016.8
20260902213100 88 128 2.0 8.0 0.01 0.32 0.32 61 1017.1
20260902211556 88 0 3.0 7.0 0.01 0.32 0.32 62 1016.8
20260902210054 87 78 1.0 9.0 0.01 0.32 0.32 63 1017.1
20260902204551 87 109 4.0 10.0 0.01 0.32 0.32 63 1017.2
20260902203048 86 82 1.0 8.0 0.00 0.31 0.31 63 1017.2
20260902201554 86 275 1.0 8.0 0.00 0.31 0.31 66 1017.4
20260902200056 84 149 4.0 9.0 0.00 0.31 0.31 67 1017.4
20260902194604 83 138 2.0 11.0 0.00 0.31 0.31 71 1017.4
20260902193057 83 86 5.0 10.0 0.00 0.31 0.31 70 1017.4
20260902191553 84 120 3.0 9.0 0.01 0.31 0.31 67 1017.7
20260902190105 84 76 2.0 5.0 0.01 0.31 0.31 69 1018.0
20260902184602 81 346 1.0 8.0 0.01 0.31 0.31 73 1018.2
20260902183100 78 246 0.0 6.0 0.01 0.31 0.31 80 1018.5
20260902181554 79 225 1.0 5.0 0.00 0.30 0.30 78 1018.6
20260902180133 79 18 2.0 6.0 0.00 0.30 0.30 77 1018.4
20260902174548 77 309 3.0 9.0 0.00 0.30 0.30 78 1018.0
20260902173053 77 313 0.0 6.0 0.01 0.30 0.30 80 1018.9
20260902171554 79 51 5.0 18.0 0.01 0.30 0.30 75 1019.4
20260902170050 83 340 9.0 18.0 0.01 0.30 0.30 65 1019.8
20260902164556 83 74 10.0 20.0 0.01 0.30 0.30 71 1019.6
20260902163059 85 22 7.0 13.0 0.00 0.29 0.29 74 1019.4
20260902161555 88 14 8.0 12.0 0.01 0.29 0.29 67 1019.4
20260902160100 90 80 1.0 4.0 0.01 0.29 0.29 63 1018.9
20260902154556 89 48 2.0 6.0 0.01 0.29 0.29 64 1018.8
20260902153050 88 0 1.0 7.0 0.02 0.29 0.29 65 1018.8
20260902151548 87 0 1.0 7.0 0.01 0.28 0.28 67 1018.5
20260902150048 86 196 1.0 5.0 0.01 0.28 0.28 69 1018.5
20260902144551 85 139 3.0 6.0 0.02 0.28 0.28 71 1018.3
20260902143050 84 75 1.0 3.0 0.01 0.27 0.27 75 1018.5
20260902141549 83 83 1.0 4.0 0.02 0.27 0.27 77 1018.4
20260902140047 82 78 1.0 3.0 0.02 0.27 0.27 80 1018.5
20260902134553 79 0 0.0 2.0 0.02 0.26 0.26 83 1018.3
20260902133058 78 0 0.0 3.0 0.03 0.26 0.26 85 1018.3
20260902131602 76 58 1.0 2.0 0.02 0.25 0.25 91 1018.6
20260902124603 74 185 0.0 2.0 0.03 0.24 0.24 95 1018.8
20260902123100 74 185 1.0 2.0 0.03 0.23 0.23 95 1018.4
20260902121611 73 0 0.0 4.0 0.04 0.23 0.23 95 1018.4
20260902120056 72 153 1.0 3.0 0.04 0.22 0.22 95 1018.2
20260902114554 71 0 0.0 2.0 0.04 0.21 0.21 95 1018.2